When you browse on this site, cookies collect data to enhance your experience and personalize the content and advertising you see.
Visit our Privacy Policy to learn more. By continuing to use the site, you agree to this use of cookies and data.
  • In Österreich
  • Länderverzeichnis
  • Für 7 Tage
  • Wassertemperatur
  • Satellitenkarten
  • Wetterkarte
  • News
  • Widgets
  • user-avatar
    Anmelden

    Stündliche Wetter Uige

    Heute, 20 November, Dienstag

    Zeit Temperatur Niederschläge Wind Luftdruck Luftfeuchtigkeit
    00:00 +20°C° 0.2 mm 0 m/S 690 mmHg 96%
    01:00 +20°C° 0 mm 0 m/S 690 mmHg 98%
    02:00 +20°C° 0.2 mm 0 m/S 690 mmHg 98%
    03:00 +20°C° 0.2 mm 0 m/S 690 mmHg 98%
    04:00 +20°C° 0.2 mm 0 m/S 690 mmHg 98%
    05:00 +20°C° 0.4 mm 0 m/S 691 mmHg 97%
    06:00 +21°C° 0.4 mm 0 m/S 691 mmHg 97%
    07:00 +24°C° 0 mm 1 m/S 692 mmHg 96%
    08:00 +25°C° 0.8 mm 1 m/S 692 mmHg 91%
    09:00 +27°C° 0.8 mm 1 m/S 692 mmHg 85%
    10:00 +28°C° 0.8 mm 1 m/S 692 mmHg 80%
    11:00 +28°C° 1.5 mm 1 m/S 691 mmHg 79%
    12:00 +29°C° 1.5 mm 1 m/S 691 mmHg 79%
    13:00 +30°C° 0 mm 1 m/S 691 mmHg 73%
    14:00 +29°C° 2.1 mm 1 m/S 690 mmHg 78%
    15:00 +28°C° 2.1 mm 1 m/S 690 mmHg 83%
    16:00 +27°C° 2.1 mm 1 m/S 690 mmHg 88%
    17:00 +26°C° 3.4 mm 1 m/S 690 mmHg 90%
    18:00 +24°C° 3.4 mm 1 m/S 691 mmHg 93%
    19:00 +23°C° 3.4 mm 1 m/S 691 mmHg 95%
    20:00 +23°C° 0.6 mm 1 m/S 691 mmHg 96%
    21:00 +23°C° 0.6 mm 1 m/S 692 mmHg 96%
    22:00 +22°C° 0.6 mm 1 m/S 692 mmHg 97%
    23:00 +22°C° 0.4 mm 1 m/S 692 mmHg 98%

    Morgen, 21 November, Mittwoch

    Zeit Temperatur Niederschläge Wind Luftdruck Luftfeuchtigkeit
    00:00 +20°C° 0.4 mm 0 m/S 692 mmHg 98%
    01:00 +20°C° 0.4 mm 0 m/S 691 mmHg 98%
    02:00 +20°C° 0.3 mm 0 m/S 691 mmHg 98%
    03:00 +20°C° 0.3 mm 0 m/S 691 mmHg 98%
    04:00 +22°C° 0.3 mm 1 m/S 691 mmHg 98%
    05:00 +22°C° 0.6 mm 1 m/S 691 mmHg 98%
    06:00 +22°C° 0.6 mm 1 m/S 691 mmHg 97%
    07:00 +22°C° 0.6 mm 1 m/S 691 mmHg 97%
    08:00 +23°C° 0.7 mm 1 m/S 692 mmHg 96%
    09:00 +23°C° 0.7 mm 1 m/S 692 mmHg 95%
    10:00 +24°C° 0.7 mm 1 m/S 692 mmHg 94%
    11:00 +25°C° 0.2 mm 1 m/S 692 mmHg 87%
    12:00 +26°C° 0.2 mm 1 m/S 691 mmHg 80%
    13:00 +28°C° 0.2 mm 1 m/S 691 mmHg 74%
    14:00 +28°C° 0.2 mm 1 m/S 690 mmHg 73%
    15:00 +28°C° 0.2 mm 1 m/S 690 mmHg 73%
    16:00 +28°C° 0.2 mm 1 m/S 690 mmHg 72%
    17:00 +27°C° 0.4 mm 1 m/S 690 mmHg 78%
    18:00 +25°C° 0.4 mm 1 m/S 690 mmHg 83%
    19:00 +24°C° 0.4 mm 1 m/S 691 mmHg 89%
    20:00 +23°C° 0 mm 1 m/S 691 mmHg 90%
    21:00 +21°C° 0 mm 0 m/S 691 mmHg 91%
    22:00 +20°C° 0 mm 0 m/S 691 mmHg 93%
    23:00 +20°C° 0 mm 0 m/S 691 mmHg 93%

    übermorgen, 22 November, Donnerstag

    Zeit Temperatur Niederschläge Wind Luftdruck Luftfeuchtigkeit
    00:00 +22°C° 0 mm 1 m/S 691 mmHg 94%
    01:00 +21°C° 0 mm 1 m/S 690 mmHg 95%
    02:00 +21°C° 0 mm 1 m/S 690 mmHg 95%
    03:00 +21°C° 0 mm 1 m/S 690 mmHg 96%
    04:00 +21°C° 0 mm 1 m/S 690 mmHg 97%
    05:00 +22°C° 0 mm 1 m/S 691 mmHg 96%
    06:00 +22°C° 0 mm 1 m/S 691 mmHg 95%
    07:00 +23°C° 0 mm 1 m/S 692 mmHg 94%
    08:00 +25°C° 0.1 mm 1 m/S 692 mmHg 86%
    09:00 +26°C° 0.1 mm 1 m/S 693 mmHg 78%
    10:00 +28°C° 0.1 mm 1 m/S 693 mmHg 70%
    11:00 +29°C° 0.6 mm 2 m/S 692 mmHg 71%
    12:00 +29°C° 0.6 mm 2 m/S 691 mmHg 72%
    13:00 +29°C° 0.6 mm 2 m/S 691 mmHg 73%
    14:00 +28°C° 1.1 mm 2 m/S 690 mmHg 77%
    15:00 +28°C° 1.1 mm 2 m/S 690 mmHg 81%
    16:00 +27°C° 1.1 mm 2 m/S 689 mmHg 86%
    17:00 +26°C° 0.4 mm 1 m/S 689 mmHg 89%
    18:00 +24°C° 0.4 mm 1 m/S 690 mmHg 92%
    19:00 +23°C° 0.4 mm 1 m/S 690 mmHg 95%
    20:00 +23°C° 0.4 mm 1 m/S 691 mmHg 96%
    21:00 +22°C° 0.4 mm 1 m/S 691 mmHg 96%
    22:00 +22°C° 0.4 mm 1 m/S 692 mmHg 97%
    23:00 +22°C° 0.6 mm 1 m/S 691 mmHg 97%

    23 November, Freitag

    Zeit Temperatur Niederschläge Wind Luftdruck Luftfeuchtigkeit
    00:00 +22°C° 0.6 mm 1 m/S 691 mmHg 98%
    01:00 +22°C° 0.6 mm 1 m/S 691 mmHg 98%
    02:00 +22°C° 0.2 mm 1 m/S 690 mmHg 98%
    03:00 +22°C° 0.2 mm 1 m/S 690 mmHg 98%
    04:00 +22°C° 0.2 mm 1 m/S 690 mmHg 99%
    05:00 +22°C° 0.1 mm 1 m/S 691 mmHg 98%
    06:00 +23°C° 0.1 mm 1 m/S 691 mmHg 97%
    07:00 +23°C° 0.1 mm 1 m/S 692 mmHg 97%
    08:00 +24°C° 0.8 mm 1 m/S 692 mmHg 93%
    09:00 +26°C° 0.8 mm 1 m/S 692 mmHg 89%
    10:00 +25°C° 0.8 mm 0 m/S 692 mmHg 85%
    11:00 +25°C° 1.6 mm 0 m/S 692 mmHg 84%
    12:00 +28°C° 1.6 mm 1 m/S 691 mmHg 83%
    13:00 +28°C° 1.6 mm 1 m/S 690 mmHg 81%
    14:00 +28°C° 1.1 mm 1 m/S 690 mmHg 84%
    15:00 +27°C° 1.1 mm 1 m/S 689 mmHg 86%
    16:00 +27°C° 1.1 mm 1 m/S 689 mmHg 88%
    17:00 +25°C° 0.3 mm 1 m/S 689 mmHg 90%
    18:00 +22°C° 0.3 mm 0 m/S 690 mmHg 91%
    19:00 +21°C° 0.3 mm 0 m/S 690 mmHg 92%
    20:00 +21°C° 0 mm 0 m/S 690 mmHg 92%
    21:00 +20°C° 0 mm 0 m/S 691 mmHg 92%
    22:00 +20°C° 0 mm 0 m/S 691 mmHg 92%
    23:00 +20°C° 0 mm 0 m/S 691 mmHg 92%

    24 November, Samstag

    Zeit Temperatur Niederschläge Wind Luftdruck Luftfeuchtigkeit
    00:00 +20°C° 0 mm 0 m/S 690 mmHg 93%
    01:00 +19°C° 0 mm 0 m/S 690 mmHg 93%
    02:00 +19°C° 0 mm 0 m/S 690 mmHg 93%
    03:00 +19°C° 0 mm 0 m/S 690 mmHg 93%
    04:00 +19°C° 0 mm 0 m/S 690 mmHg 93%
    05:00 +20°C° 0 mm 0 m/S 690 mmHg 92%
    06:00 +20°C° 0 mm 0 m/S 691 mmHg 91%
    07:00 +23°C° 0 mm 1 m/S 691 mmHg 90%
    08:00 +25°C° 0.2 mm 1 m/S 692 mmHg 84%
    09:00 +27°C° 0.2 mm 1 m/S 692 mmHg 77%
    10:00 +29°C° 0.2 mm 1 m/S 693 mmHg 70%
    11:00 +29°C° 1.5 mm 1 m/S 692 mmHg 73%
    12:00 +29°C° 1.5 mm 1 m/S 691 mmHg 75%
    13:00 +29°C° 1.5 mm 1 m/S 690 mmHg 78%
    14:00 +28°C° 1.8 mm 1 m/S 689 mmHg 82%
    15:00 +28°C° 1.8 mm 1 m/S 689 mmHg 86%
    16:00 +27°C° 1.8 mm 1 m/S 689 mmHg 90%
    17:00 +26°C° 0.8 mm 1 m/S 689 mmHg 92%
    18:00 +24°C° 0.8 mm 1 m/S 690 mmHg 93%
    19:00 +23°C° 0.8 mm 1 m/S 690 mmHg 95%
    20:00 +23°C° 0.2 mm 1 m/S 691 mmHg 95%
    21:00 +22°C° 0.2 mm 1 m/S 691 mmHg 95%
    22:00 +20°C° 0.2 mm 0 m/S 692 mmHg 96%
    23:00 +22°C° 0.1 mm 1 m/S 691 mmHg 96%

    25 November, Sonntag

    Zeit Temperatur Niederschläge Wind Luftdruck Luftfeuchtigkeit
    00:00 +22°C° 0.1 mm 1 m/S 691 mmHg 97%
    01:00 +21°C° 0.1 mm 1 m/S 690 mmHg 97%
    02:00 +21°C° 0.1 mm 1 m/S 690 mmHg 98%
    03:00 +21°C° 0.1 mm 1 m/S 690 mmHg 98%
    04:00 +21°C° 0.1 mm 1 m/S 690 mmHg 98%
    05:00 +22°C° 0 mm 1 m/S 690 mmHg 98%
    06:00 +22°C° 0 mm 1 m/S 691 mmHg 97%
    07:00 +23°C° 0 mm 1 m/S 691 mmHg 97%
    08:00 +24°C° 0.3 mm 1 m/S 692 mmHg 93%
    09:00 +25°C° 0.3 mm 1 m/S 692 mmHg 90%
    10:00 +26°C° 0.3 mm 1 m/S 692 mmHg 86%
    11:00 +27°C° 1.6 mm 1 m/S 691 mmHg 85%
    12:00 +27°C° 1.6 mm 1 m/S 690 mmHg 84%
    13:00 +28°C° 1.6 mm 1 m/S 690 mmHg 83%
    14:00 +27°C° 1.3 mm 1 m/S 689 mmHg 86%
    15:00 +27°C° 1.3 mm 1 m/S 689 mmHg 88%
    16:00 +26°C° 1.3 mm 1 m/S 688 mmHg 91%
    17:00 +25°C° 0.6 mm 1 m/S 689 mmHg 92%
    18:00 +24°C° 0.6 mm 1 m/S 689 mmHg 93%
    19:00 +23°C° 0.6 mm 1 m/S 690 mmHg 94%
    20:00 +23°C° 0.3 mm 1 m/S 690 mmHg 95%
    21:00 +22°C° 0.3 mm 1 m/S 690 mmHg 96%
    22:00 +22°C° 0.3 mm 1 m/S 691 mmHg 96%
    23:00 +22°C° 0.1 mm 1 m/S 690 mmHg 97%
    Mehr zeigen